Home   Weather   Dublin   Past weeks
Flag for Ireland

Past Weather in Dublin, Ireland — Yesterday and Last 2 Weeks

Now
45 °F

Partly cloudy.


Feels Like: 41 °F
Forecast: 60 / 44 °F
Wind: 6 mph from West

Location: Dublin Airport

Current Time: May 20, 2019 at 5:45:14 am

Latest Report: May 20, 2019 at 5:00 am


Visibility: N/A

Pressure: 29.95 "Hg

Humidity: 93%

Dew Point: 43 °F

Location of DublinLocation

Past Weather in Dublin — Graph

°F

Dublin Temperature Yesterday

Maximum temperature yesterday: 57 °F (at 5:30 pm)
Minimum temperature yesterday: 45 °F (at 10:30 pm)
Average temperature yesterday: 51 °F

High & Low Weather Summary for the Past Weeks

 TemperatureHumidityPressure
High64 °F (May 13, 1:00 pm)100% (May 8, 11:00 pm)30.66 "Hg (May 8, 11:00 pm)
Low30 °F (May 5, 5:00 am)34% (May 14, 5:30 pm)29.27 "Hg (May 8, 10:00 am)
Average49 °F76%30.05 "Hg
* Reported May 5 4:00 am — May 20 4:30 am, Dublin. Weather by CustomWeather, © 2019

Note: Actual official high and low records may vary slightly from our data, if they occured in-between our weather recording intervals... More about our weather records

Advertising

Dublin Weather History for the Previous 24 Hours

Scroll right to see more
 ConditionsComfort  
Time TempWeatherWind HumidityBarometerVisibility
4:30 am
Mon, May 20
43 °FPassing clouds.8 mph100%29.95 "HgN/A
3:30 am41 °FPassing clouds.8 mph100%29.95 "HgN/A
3:00 am41 °FPassing clouds.9 mph100%29.95 "HgN/A
2:30 am41 °FPartly cloudy.8 mph93%29.95 "HgN/A
2:00 am41 °FPassing clouds.9 mph100%29.95 "HgN/A
1:30 am41 °FPassing clouds.8 mph93%29.95 "HgN/A
1:00 am41 °FPassing clouds.8 mph100%29.95 "HgN/A
12:30 am43 °FPassing clouds.7 mph93%29.95 "HgN/A
12:00 am43 °FPartly cloudy.8 mph93%29.95 "HgN/A
11:30 pm
Sun, May 19
45 °FPassing clouds.9 mph93%29.95 "HgN/A
11:00 pm50 °FScattered showers. Passing clouds.5 mph82%29.95 "HgN/A
10:30 pm45 °FPassing clouds.3 mph93%29.95 "HgN/A
9:30 pm48 °FScattered showers. Partly cloudy.3 mph87%29.95 "HgN/A
9:00 pm52 °FSprinkles. Broken clouds.8 mph88%29.92 "Hg5 mi
8:30 pm52 °FScattered showers. Broken clouds.5 mph88%29.92 "HgN/A
8:00 pm52 °FSprinkles. Partly sunny.6 mph82%29.92 "HgN/A
7:30 pm54 °FScattered showers. Partly sunny.6 mph82%29.92 "HgN/A
7:00 pm54 °FPartly sunny.7 mph82%29.92 "HgN/A
6:30 pm52 °FSprinkles. Broken clouds.7 mph88%29.92 "HgN/A
6:00 pm52 °FSprinkles. Broken clouds.14 mph82%29.92 "HgN/A
5:30 pm57 °FScattered showers. Partly sunny.8 mph72%29.89 "HgN/A
5:00 pm55 °FScattered showers. Partly sunny.7 mph72%29.89 "HgN/A
4:30 pm55 °FPartly sunny.10 mph72%29.92 "HgN/A
4:00 pm55 °FPartly sunny.12 mph72%29.89 "HgN/A
3:30 pm54 °FSprinkles. Partly sunny.10 mph77%29.89 "HgN/A
3:00 pm55 °FPartly sunny.10 mph72%29.89 "HgN/A
2:30 pm55 °FSprinkles. Partly sunny.10 mph72%29.89 "HgN/A
2:00 pm55 °FPartly sunny.10 mph72%29.89 "HgN/A
1:30 pm55 °FPartly sunny.13 mph77%29.89 "HgN/A
1:00 pm55 °FPartly sunny.12 mph77%29.89 "HgN/A
12:30 pm55 °FPartly sunny.12 mph77%29.89 "HgN/A
12:00 pm54 °FPartly sunny.12 mph77%29.89 "HgN/A
11:30 am54 °FPartly sunny.13 mph77%29.89 "HgN/A
11:00 am54 °FPartly sunny.10 mph82%29.89 "HgN/A
10:30 am54 °FBroken clouds.9 mph77%29.89 "HgN/A
10:00 am54 °FBroken clouds.8 mph82%29.89 "HgN/A
9:30 am52 °FPartly sunny.8 mph82%29.89 "HgN/A
9:00 am50 °FPartly sunny.8 mph94%29.89 "HgN/A
8:30 am50 °FPartly sunny.9 mph94%29.86 "HgN/A
8:00 am48 °FPartly sunny.9 mph94%29.86 "HgN/A
7:30 am48 °FBroken clouds.8 mph94%29.86 "HgN/A
7:00 am48 °FBroken clouds.8 mph94%29.86 "HgN/A
6:30 am48 °FPartly sunny.8 mph94%29.86 "HgN/A
6:00 am46 °FPartly sunny.8 mph93%29.86 "HgN/A
5:30 am46 °FPartly sunny.9 mph93%29.83 "HgN/A
5:00 am46 °FPassing clouds.8 mph100%29.83 "HgN/A
Weather by CustomWeather, © 2019

See weather overview